Year,Month,Day,Hour,Minute,Value (Times are PST for windgust in km/hr)
2018,02,17,00,01,1.60
2018,02,17,00,02,4.80
2018,02,17,00,03,4.80
2018,02,17,00,04,3.20
2018,02,17,00,05,1.60
2018,02,17,00,06,3.20
2018,02,17,00,07,3.20
2018,02,17,00,08,3.20
2018,02,17,01,59,4.80
2018,02,17,02,00,4.80
2018,02,17,02,01,4.80
2018,02,17,02,02,4.80
2018,02,17,02,03,4.80
2018,02,17,02,04,1.60
2018,02,17,02,06,4.80
2018,02,17,02,07,4.80
2018,02,17,02,08,4.80
2018,02,17,02,09,4.80
2018,02,17,02,10,4.80
2018,02,17,02,11,3.20
2018,02,17,02,12,4.80
2018,02,17,02,13,4.80
2018,02,17,02,14,3.20
2018,02,17,02,15,3.20
2018,02,17,02,16,1.60
2018,02,17,02,21,1.60
2018,02,17,02,22,3.20
2018,02,17,02,39,4.80
2018,02,17,02,40,3.20
2018,02,17,02,41,1.60
2018,02,17,02,42,3.20
2018,02,17,02,43,1.60
2018,02,17,02,44,1.60
2018,02,17,02,45,1.60
2018,02,17,02,46,1.60
2018,02,17,02,48,3.20
2018,02,17,03,27,3.20
2018,02,17,03,28,1.60
2018,02,17,03,29,6.40
2018,02,17,03,30,4.80
2018,02,17,03,31,4.80
2018,02,17,03,32,8.10
2018,02,17,03,33,6.40
2018,02,17,03,34,6.40
2018,02,17,03,35,4.80
2018,02,17,03,37,3.20
2018,02,17,03,38,1.60
2018,02,17,03,39,1.60
2018,02,17,03,41,8.10
2018,02,17,03,42,8.10
2018,02,17,03,43,4.80
2018,02,17,03,44,4.80
2018,02,17,03,45,4.80
2018,02,17,03,48,8.10
2018,02,17,03,49,9.60
2018,02,17,03,50,9.60
2018,02,17,03,51,8.10
2018,02,17,03,52,4.80
2018,02,17,03,53,8.10
2018,02,17,03,54,4.80
2018,02,17,03,55,3.20
2018,02,17,03,56,4.80
2018,02,17,03,57,4.80
2018,02,17,03,58,9.60
2018,02,17,03,59,8.10
2018,02,17,04,00,9.60
2018,02,17,04,01,4.80
2018,02,17,04,02,6.40
2018,02,17,04,03,6.40
2018,02,17,04,04,4.80
2018,02,17,04,05,8.10
2018,02,17,04,06,4.80
2018,02,17,04,07,4.80
2018,02,17,04,08,4.80
2018,02,17,04,09,4.80
2018,02,17,04,10,1.60
2018,02,17,04,11,3.20
2018,02,17,04,12,4.80
2018,02,17,04,13,4.80
2018,02,17,04,14,3.20
2018,02,17,04,15,1.60
2018,02,17,04,16,1.60
2018,02,17,04,24,8.10
2018,02,17,04,25,8.10
2018,02,17,04,26,6.40
2018,02,17,04,27,4.80
2018,02,17,04,28,6.40
2018,02,17,04,29,6.40
2018,02,17,04,30,6.40
2018,02,17,04,31,6.40
2018,02,17,04,32,9.60
2018,02,17,04,33,8.10
2018,02,17,04,34,4.80
2018,02,17,04,35,4.80
2018,02,17,04,36,6.40
2018,02,17,04,37,11.30
2018,02,17,04,38,6.40
2018,02,17,04,39,4.80
2018,02,17,04,40,3.20
2018,02,17,04,41,8.10
2018,02,17,04,42,4.80
2018,02,17,04,43,6.40
2018,02,17,04,44,4.80
2018,02,17,04,45,4.80
2018,02,17,04,46,4.80
2018,02,17,04,50,6.40
2018,02,17,04,51,6.40
2018,02,17,04,52,1.60
2018,02,17,04,53,1.60
2018,02,17,04,54,1.60
2018,02,17,04,55,3.20
2018,02,17,04,58,3.20
2018,02,17,04,59,3.20
2018,02,17,05,00,3.20
2018,02,17,05,01,3.20
2018,02,17,05,02,4.80
2018,02,17,05,03,3.20
2018,02,17,05,04,6.40
2018,02,17,05,05,3.20
2018,02,17,05,06,1.60
2018,02,17,05,07,3.20
2018,02,17,05,08,3.20
2018,02,17,05,09,3.20
2018,02,17,05,10,3.20
2018,02,17,05,12,1.60
2018,02,17,05,14,4.80
2018,02,17,05,15,3.20
2018,02,17,05,16,3.20
2018,02,17,05,17,3.20
2018,02,17,05,18,3.20
2018,02,17,05,19,4.80
2018,02,17,05,20,4.80
2018,02,17,05,21,4.80
2018,02,17,05,22,3.20
2018,02,17,05,23,1.60
2018,02,17,05,26,4.80
2018,02,17,05,27,1.60
2018,02,17,05,28,1.60
2018,02,17,05,29,1.60
2018,02,17,05,32,1.60
2018,02,17,05,33,1.60
2018,02,17,05,38,1.60
2018,02,17,05,39,1.60
2018,02,17,06,15,1.60
2018,02,17,06,17,1.60
2018,02,17,06,18,1.60
2018,02,17,06,37,1.60
2018,02,17,06,50,1.60
2018,02,17,06,57,4.80
2018,02,17,06,58,4.80
2018,02,17,06,59,4.80
2018,02,17,07,00,4.80
2018,02,17,07,01,4.80
2018,02,17,07,02,3.20
2018,02,17,07,03,6.40
2018,02,17,07,04,6.40
2018,02,17,07,05,3.20
2018,02,17,07,06,4.80
2018,02,17,07,07,3.20
2018,02,17,07,08,1.60
2018,02,17,07,10,3.20
2018,02,17,07,11,4.80
2018,02,17,07,12,6.40
2018,02,17,07,13,6.40
2018,02,17,07,14,8.10
2018,02,17,07,15,4.80
2018,02,17,07,16,3.20
2018,02,17,07,17,4.80
2018,02,17,07,18,4.80
2018,02,17,07,19,1.60
2018,02,17,07,20,6.40
2018,02,17,07,21,4.80
2018,02,17,07,22,4.80
2018,02,17,07,23,4.80
2018,02,17,07,24,4.80
2018,02,17,07,25,8.10
2018,02,17,07,26,4.80
2018,02,17,07,27,4.80
2018,02,17,07,28,3.20
2018,02,17,07,29,4.80
2018,02,17,07,30,6.40
2018,02,17,07,31,8.10
2018,02,17,07,32,6.40
2018,02,17,07,33,6.40
2018,02,17,07,34,8.10
2018,02,17,07,35,11.30
2018,02,17,07,36,8.10
2018,02,17,07,37,3.20
2018,02,17,07,38,3.20
2018,02,17,07,39,6.40
2018,02,17,07,40,6.40
2018,02,17,07,41,4.80
2018,02,17,07,42,6.40
2018,02,17,07,43,3.20
2018,02,17,07,44,3.20
2018,02,17,07,45,3.20
2018,02,17,07,46,3.20
2018,02,17,07,47,1.60
2018,02,17,07,48,1.60
2018,02,17,07,49,1.60
2018,02,17,07,50,1.60
2018,02,17,07,51,4.80
2018,02,17,07,52,4.80
2018,02,17,07,53,4.80
2018,02,17,07,54,6.40
2018,02,17,07,55,4.80
2018,02,17,07,56,4.80
2018,02,17,07,57,4.80
2018,02,17,07,58,4.80
2018,02,17,07,59,6.40
2018,02,17,08,00,8.10
2018,02,17,08,01,9.60
2018,02,17,08,02,6.40
2018,02,17,08,03,3.20
2018,02,17,08,08,1.60
2018,02,17,08,11,6.40
2018,02,17,08,12,3.20
2018,02,17,08,13,4.80
2018,02,17,08,14,4.80
2018,02,17,08,15,4.80
2018,02,17,08,16,3.20
2018,02,17,08,17,6.40
2018,02,17,08,18,3.20
2018,02,17,08,19,4.80
2018,02,17,08,20,8.10
2018,02,17,08,21,9.60
2018,02,17,08,22,8.10
2018,02,17,08,23,11.30
2018,02,17,08,24,4.80
2018,02,17,08,25,3.20
2018,02,17,08,26,6.40
2018,02,17,08,27,8.10
2018,02,17,08,28,8.10
2018,02,17,08,29,6.40
2018,02,17,08,30,4.80
2018,02,17,08,31,4.80
2018,02,17,08,32,6.40
2018,02,17,08,33,3.20
2018,02,17,08,34,8.10
2018,02,17,08,35,14.50
2018,02,17,08,36,14.50
2018,02,17,08,37,11.30
2018,02,17,08,38,14.50
2018,02,17,08,39,11.30
2018,02,17,08,40,8.10
2018,02,17,08,41,1.60
2018,02,17,08,42,1.60
2018,02,17,08,43,3.20
2018,02,17,08,44,3.20
2018,02,17,08,45,3.20
2018,02,17,08,47,4.80
2018,02,17,08,48,6.40
2018,02,17,08,49,3.20
2018,02,17,08,50,4.80
2018,02,17,08,51,3.20
2018,02,17,08,52,6.40
2018,02,17,08,53,4.80
2018,02,17,08,54,8.10
2018,02,17,08,55,6.40
2018,02,17,08,56,1.60
2018,02,17,08,57,4.80
2018,02,17,08,58,8.10
2018,02,17,08,59,6.40
2018,02,17,09,00,11.30
2018,02,17,09,01,9.60
2018,02,17,09,02,8.10
2018,02,17,09,03,6.40
2018,02,17,09,04,3.20
2018,02,17,09,05,4.80
2018,02,17,09,06,3.20
2018,02,17,09,07,1.60
2018,02,17,09,08,4.80
2018,02,17,09,09,1.60
2018,02,17,09,10,4.80
2018,02,17,09,11,4.80
2018,02,17,09,12,4.80
2018,02,17,09,13,6.40
2018,02,17,09,14,4.80
2018,02,17,09,15,6.40
2018,02,17,09,16,4.80
2018,02,17,09,17,4.80
2018,02,17,09,18,3.20
2018,02,17,09,19,4.80
2018,02,17,09,22,8.10
2018,02,17,09,23,4.80
2018,02,17,09,24,3.20
2018,02,17,09,25,4.80
2018,02,17,09,26,6.40
2018,02,17,09,27,4.80
2018,02,17,09,28,3.20
2018,02,17,09,43,1.60
2018,02,17,09,44,4.80
2018,02,17,09,45,4.80
2018,02,17,09,46,4.80
2018,02,17,09,47,9.60
2018,02,17,09,48,11.30
2018,02,17,09,49,8.10
2018,02,17,09,50,4.80
2018,02,17,09,51,3.20
2018,02,17,09,52,6.40
2018,02,17,09,53,4.80
2018,02,17,09,54,9.60
2018,02,17,09,55,9.60
2018,02,17,09,56,16.10
2018,02,17,09,57,8.10
2018,02,17,09,58,8.10
2018,02,17,09,59,16.10
2018,02,17,10,00,6.40
2018,02,17,10,01,11.30
2018,02,17,10,02,14.50
2018,02,17,10,03,11.30
2018,02,17,10,04,11.30
2018,02,17,10,05,8.10
2018,02,17,10,06,16.10
2018,02,17,10,07,16.10
2018,02,17,10,08,8.10
2018,02,17,10,09,8.10
2018,02,17,10,10,6.40
2018,02,17,10,11,8.10
2018,02,17,10,12,8.10
2018,02,17,10,13,6.40
2018,02,17,10,14,3.20
2018,02,17,10,15,6.40
2018,02,17,10,16,6.40
2018,02,17,10,17,8.10
2018,02,17,10,18,9.60
2018,02,17,10,19,14.50
2018,02,17,10,20,8.10
2018,02,17,10,21,11.30
2018,02,17,10,22,11.30
2018,02,17,10,23,19.30
2018,02,17,10,24,8.10
2018,02,17,10,25,9.60
2018,02,17,10,26,9.60
2018,02,17,10,27,8.10
2018,02,17,10,28,4.80
2018,02,17,10,29,14.50
2018,02,17,10,30,11.30
2018,02,17,10,31,6.40
2018,02,17,10,32,16.10
2018,02,17,10,33,8.10
2018,02,17,10,34,19.30
2018,02,17,10,35,24.20
2018,02,17,10,36,14.50
2018,02,17,10,37,9.60
2018,02,17,10,38,12.90
2018,02,17,10,39,6.40
2018,02,17,10,40,32.20
2018,02,17,10,41,24.20
2018,02,17,10,42,9.60
2018,02,17,10,43,24.20
2018,02,17,10,44,17.70
2018,02,17,10,45,16.10
2018,02,17,10,46,30.60
2018,02,17,10,47,9.60
2018,02,17,10,48,9.60
2018,02,17,10,49,6.40
2018,02,17,10,50,11.30
2018,02,17,10,51,14.50
2018,02,17,10,52,11.30
2018,02,17,10,53,22.50
2018,02,17,10,54,12.90
2018,02,17,10,55,14.50
2018,02,17,10,56,16.10
2018,02,17,10,57,19.30
2018,02,17,10,58,17.70
2018,02,17,10,59,22.50
2018,02,17,11,00,16.10
2018,02,17,11,01,20.90
2018,02,17,11,02,19.30
2018,02,17,11,03,8.10
2018,02,17,11,04,14.50
2018,02,17,11,05,17.70
2018,02,17,11,06,9.60
2018,02,17,11,07,8.10
2018,02,17,11,08,8.10
2018,02,17,11,09,11.30
2018,02,17,11,10,4.80
2018,02,17,11,11,14.50
2018,02,17,11,12,8.10
2018,02,17,11,13,19.30
2018,02,17,11,14,11.30
2018,02,17,11,15,11.30
2018,02,17,11,16,8.10
2018,02,17,11,17,11.30
2018,02,17,11,18,20.90
2018,02,17,11,19,6.40
2018,02,17,11,20,27.40
2018,02,17,11,21,16.10
2018,02,17,11,22,16.10
2018,02,17,11,23,25.70
2018,02,17,11,24,12.90
2018,02,17,11,25,8.10
2018,02,17,11,26,8.10
2018,02,17,11,27,17.70
2018,02,17,11,28,11.30
2018,02,17,11,29,27.40
2018,02,17,11,30,19.30
2018,02,17,11,31,19.30
2018,02,17,11,32,29.00
2018,02,17,11,33,27.40
2018,02,17,11,34,11.30
2018,02,17,11,35,11.30
2018,02,17,11,36,11.30
2018,02,17,11,37,16.10
2018,02,17,11,38,27.40
2018,02,17,11,39,32.20
2018,02,17,11,40,17.70
2018,02,17,11,41,11.30
2018,02,17,11,42,19.30
2018,02,17,11,43,16.10
2018,02,17,11,44,16.10
2018,02,17,11,45,11.30
2018,02,17,11,46,35.40
2018,02,17,11,47,32.20
2018,02,17,11,48,19.30
2018,02,17,11,49,24.20
2018,02,17,11,50,9.60
2018,02,17,11,51,6.40
2018,02,17,11,52,8.10
2018,02,17,11,53,19.30
2018,02,17,11,54,19.30
2018,02,17,11,55,8.10
2018,02,17,11,56,6.40
2018,02,17,11,57,14.50
2018,02,17,11,58,11.30
2018,02,17,11,59,22.50
2018,02,17,12,00,11.30
2018,02,17,12,01,17.70
2018,02,17,12,02,17.70
2018,02,17,12,03,16.10
2018,02,17,12,04,19.30
2018,02,17,12,05,16.10
2018,02,17,12,06,11.30
2018,02,17,12,07,19.30
2018,02,17,12,08,20.90
2018,02,17,12,09,16.10
2018,02,17,12,10,19.30
2018,02,17,12,11,11.30
2018,02,17,12,12,22.50
2018,02,17,12,13,17.70
2018,02,17,12,14,22.50
2018,02,17,12,15,9.60
2018,02,17,12,16,9.60
2018,02,17,12,17,20.90
2018,02,17,12,18,12.90
2018,02,17,12,19,22.50
2018,02,17,12,20,11.30
2018,02,17,12,21,32.20
2018,02,17,12,22,17.70
2018,02,17,12,23,22.50
2018,02,17,12,24,11.30
2018,02,17,12,25,11.30
2018,02,17,12,26,8.10
2018,02,17,12,27,27.40
2018,02,17,12,28,11.30
2018,02,17,12,29,16.10
2018,02,17,12,30,9.60
2018,02,17,12,31,16.10
2018,02,17,12,32,14.50
2018,02,17,12,33,8.10
2018,02,17,12,34,11.30
2018,02,17,12,35,11.30
2018,02,17,12,36,20.90
2018,02,17,12,37,24.20
2018,02,17,12,38,14.50
2018,02,17,12,39,22.50
2018,02,17,12,40,19.30
2018,02,17,12,41,24.20
2018,02,17,12,42,24.20
2018,02,17,12,43,14.50
2018,02,17,12,44,14.50
2018,02,17,12,45,24.20
2018,02,17,12,46,17.70
2018,02,17,12,47,22.50
2018,02,17,12,48,22.50
2018,02,17,12,49,25.70
2018,02,17,12,50,14.50
2018,02,17,12,51,20.90
2018,02,17,12,52,14.50
2018,02,17,12,53,11.30
2018,02,17,12,54,9.60
2018,02,17,12,55,8.10
2018,02,17,12,56,9.60
2018,02,17,12,57,22.50
2018,02,17,12,58,11.30
2018,02,17,12,59,16.10
2018,02,17,13,00,17.70
2018,02,17,13,01,24.20
2018,02,17,13,02,11.30
2018,02,17,13,03,12.90
2018,02,17,13,04,12.90
2018,02,17,13,05,17.70
2018,02,17,13,06,11.30
2018,02,17,13,07,19.30
2018,02,17,13,08,20.90
2018,02,17,13,09,14.50
2018,02,17,13,10,9.60
2018,02,17,13,11,8.10
2018,02,17,13,12,11.30
2018,02,17,13,13,22.50
2018,02,17,13,14,33.80
2018,02,17,13,15,11.30
2018,02,17,13,16,19.30
2018,02,17,13,17,14.50
2018,02,17,13,18,16.10
2018,02,17,13,19,24.20
2018,02,17,13,20,9.60
2018,02,17,13,21,9.60
2018,02,17,13,22,24.20
2018,02,17,13,23,19.30
2018,02,17,13,24,12.90
2018,02,17,13,25,30.60
2018,02,17,13,26,20.90
2018,02,17,13,27,22.50
2018,02,17,13,28,14.50
2018,02,17,13,29,17.70
2018,02,17,13,30,16.10
2018,02,17,13,31,22.50
2018,02,17,13,32,16.10
2018,02,17,13,33,8.10
2018,02,17,13,34,19.30
2018,02,17,13,35,24.20
2018,02,17,13,36,16.10
2018,02,17,13,37,14.50
2018,02,17,13,38,20.90
2018,02,17,13,39,22.50
2018,02,17,13,40,17.70
2018,02,17,13,41,24.20
2018,02,17,13,42,24.20
2018,02,17,13,43,9.60
2018,02,17,13,44,24.20
2018,02,17,13,45,14.50
2018,02,17,13,46,12.90
2018,02,17,13,47,14.50
2018,02,17,13,48,16.10
2018,02,17,13,49,16.10
2018,02,17,13,50,8.10
2018,02,17,13,51,17.70
2018,02,17,13,52,20.90
2018,02,17,13,53,17.70
2018,02,17,13,54,30.60
2018,02,17,13,55,14.50
2018,02,17,13,56,14.50
2018,02,17,13,57,9.60
2018,02,17,13,58,14.50
2018,02,17,13,59,9.60
2018,02,17,14,00,17.70
2018,02,17,14,01,11.30
2018,02,17,14,02,14.50
2018,02,17,14,03,16.10
2018,02,17,14,04,17.70
2018,02,17,14,05,22.50
2018,02,17,14,06,17.70
2018,02,17,14,07,11.30
2018,02,17,14,08,24.20
2018,02,17,14,09,16.10
2018,02,17,14,10,17.70
2018,02,17,14,11,22.50
2018,02,17,14,12,11.30
2018,02,17,14,13,19.30
2018,02,17,14,14,16.10
2018,02,17,14,15,22.50
2018,02,17,14,16,17.70
2018,02,17,14,17,19.30
2018,02,17,14,18,16.10
2018,02,17,14,19,22.50
2018,02,17,14,20,20.90
2018,02,17,14,21,8.10
2018,02,17,14,22,14.50
2018,02,17,14,23,25.70
2018,02,17,14,24,17.70
2018,02,17,14,25,17.70
2018,02,17,14,26,20.90
2018,02,17,14,27,16.10
2018,02,17,14,28,8.10
2018,02,17,14,29,16.10
2018,02,17,14,30,9.60
2018,02,17,14,31,11.30
2018,02,17,14,32,19.30
2018,02,17,14,33,22.50
2018,02,17,14,34,9.60
2018,02,17,14,35,9.60
2018,02,17,14,36,11.30
2018,02,17,14,37,9.60
2018,02,17,14,38,14.50
2018,02,17,14,39,16.10
2018,02,17,14,40,9.60
2018,02,17,14,41,20.90
2018,02,17,14,42,11.30
2018,02,17,14,43,17.70
2018,02,17,14,44,8.10
2018,02,17,14,45,16.10
2018,02,17,14,46,17.70
2018,02,17,14,47,9.60
2018,02,17,14,48,14.50
2018,02,17,14,49,9.60
2018,02,17,14,50,11.30
2018,02,17,14,51,9.60
2018,02,17,14,52,12.90
2018,02,17,14,53,9.60
2018,02,17,14,54,9.60
2018,02,17,14,55,9.60
2018,02,17,14,56,16.10
2018,02,17,14,57,6.40
2018,02,17,14,58,8.10
2018,02,17,14,59,8.10
2018,02,17,15,00,9.60
2018,02,17,15,01,17.70
2018,02,17,15,02,6.40
2018,02,17,15,03,4.80
2018,02,17,15,04,9.60
2018,02,17,15,05,19.30
2018,02,17,15,06,8.10
2018,02,17,15,07,8.10
2018,02,17,15,08,14.50
2018,02,17,15,09,11.30
2018,02,17,15,10,8.10
2018,02,17,15,11,11.30
2018,02,17,15,12,16.10
2018,02,17,15,13,17.70
2018,02,17,15,14,4.80
2018,02,17,15,15,4.80
2018,02,17,15,16,11.30
2018,02,17,15,17,6.40
2018,02,17,15,18,8.10
2018,02,17,15,19,16.10
2018,02,17,15,20,6.40
2018,02,17,15,21,8.10
2018,02,17,15,22,6.40
2018,02,17,15,23,19.30
2018,02,17,15,24,12.90
2018,02,17,15,25,8.10
2018,02,17,15,26,11.30
2018,02,17,15,27,9.60
2018,02,17,15,28,19.30
2018,02,17,15,29,11.30
2018,02,17,15,30,8.10
2018,02,17,15,31,8.10
2018,02,17,15,32,20.90
2018,02,17,15,33,4.80
2018,02,17,15,34,9.60
2018,02,17,15,35,19.30
2018,02,17,15,36,9.60
2018,02,17,15,37,14.50
2018,02,17,15,38,17.70
2018,02,17,15,39,9.60
2018,02,17,15,40,17.70
2018,02,17,15,41,6.40
2018,02,17,15,42,12.90
2018,02,17,15,43,9.60
2018,02,17,15,44,6.40
2018,02,17,15,45,14.50
2018,02,17,15,46,11.30
2018,02,17,15,47,6.40
2018,02,17,15,48,4.80
2018,02,17,15,49,12.90
2018,02,17,15,50,4.80
2018,02,17,15,51,4.80
2018,02,17,15,52,11.30
2018,02,17,15,53,6.40
2018,02,17,15,54,4.80
2018,02,17,15,55,19.30
2018,02,17,15,56,9.60
2018,02,17,15,57,11.30
2018,02,17,15,58,17.70
2018,02,17,15,59,8.10
2018,02,17,16,00,19.30
2018,02,17,16,01,6.40
2018,02,17,16,02,20.90
2018,02,17,16,03,17.70
2018,02,17,16,04,11.30
2018,02,17,16,05,11.30
2018,02,17,16,06,16.10
2018,02,17,16,07,8.10
2018,02,17,16,08,16.10
2018,02,17,16,09,6.40
2018,02,17,16,10,14.50
2018,02,17,16,11,8.10
2018,02,17,16,12,8.10
2018,02,17,16,13,16.10
2018,02,17,16,14,19.30
2018,02,17,16,15,9.60
2018,02,17,16,16,11.30
2018,02,17,16,17,11.30
2018,02,17,16,18,9.60
2018,02,17,16,19,4.80
2018,02,17,16,20,6.40
2018,02,17,16,21,8.10
2018,02,17,16,22,9.60
2018,02,17,16,23,4.80
2018,02,17,16,24,4.80
2018,02,17,16,25,1.60
2018,02,17,16,26,9.60
2018,02,17,16,27,8.10
2018,02,17,16,28,3.20
2018,02,17,16,29,4.80
2018,02,17,16,30,8.10
2018,02,17,16,31,8.10
2018,02,17,16,32,9.60
2018,02,17,16,33,4.80
2018,02,17,16,34,4.80
2018,02,17,16,36,3.20
2018,02,17,16,37,4.80
2018,02,17,16,38,3.20
2018,02,17,16,39,3.20
2018,02,17,16,40,4.80
2018,02,17,16,41,6.40
2018,02,17,16,42,4.80
2018,02,17,16,43,6.40
2018,02,17,16,44,4.80
2018,02,17,16,45,3.20
2018,02,17,16,48,3.20
2018,02,17,16,49,4.80
2018,02,17,16,50,4.80
2018,02,17,16,51,4.80
2018,02,17,16,52,3.20
2018,02,17,16,53,4.80
2018,02,17,16,54,6.40
2018,02,17,16,55,1.60
2018,02,17,16,56,4.80
2018,02,17,16,57,9.60
2018,02,17,16,58,6.40
2018,02,17,16,59,4.80
2018,02,17,17,00,17.70
2018,02,17,17,01,6.40
2018,02,17,17,02,8.10
2018,02,17,17,03,4.80
2018,02,17,17,04,6.40
2018,02,17,17,05,3.20
2018,02,17,17,06,4.80
2018,02,17,17,07,4.80
2018,02,17,17,08,8.10
2018,02,17,17,09,8.10
2018,02,17,17,10,3.20
2018,02,17,17,11,3.20
2018,02,17,17,12,6.40
2018,02,17,17,13,1.60
2018,02,17,17,14,4.80
2018,02,17,17,15,4.80
2018,02,17,17,16,1.60
2018,02,17,17,18,4.80
2018,02,17,17,19,4.80
2018,02,17,17,20,4.80
2018,02,17,17,21,3.20
2018,02,17,17,22,3.20
2018,02,17,17,23,4.80
2018,02,17,17,24,4.80
2018,02,17,17,25,4.80
2018,02,17,17,26,6.40
2018,02,17,17,27,1.60
2018,02,17,17,28,1.60
2018,02,17,17,29,1.60
2018,02,17,17,30,3.20
2018,02,17,17,31,3.20
2018,02,17,17,32,1.60
2018,02,17,17,35,3.20
2018,02,17,17,36,1.60
2018,02,17,17,37,4.80
2018,02,17,17,38,4.80
2018,02,17,17,39,3.20
2018,02,17,17,40,3.20
2018,02,17,17,41,3.20
2018,02,17,17,42,4.80
2018,02,17,17,43,4.80
2018,02,17,17,44,4.80
2018,02,17,17,45,4.80
2018,02,17,17,46,6.40
2018,02,17,17,47,6.40
2018,02,17,17,48,4.80
2018,02,17,17,49,4.80
2018,02,17,17,52,3.20
2018,02,17,17,54,1.60
2018,02,17,17,57,1.60
2018,02,17,18,00,3.20
2018,02,17,18,01,3.20
2018,02,17,18,02,3.20
2018,02,17,18,03,1.60
2018,02,17,18,04,4.80
2018,02,17,18,05,4.80
2018,02,17,18,06,4.80
2018,02,17,18,07,3.20
2018,02,17,18,08,4.80
2018,02,17,18,09,4.80
2018,02,17,18,10,6.40
2018,02,17,18,11,4.80
2018,02,17,18,12,4.80
2018,02,17,18,13,6.40
2018,02,17,18,14,4.80
2018,02,17,18,15,4.80
2018,02,17,18,16,6.40
2018,02,17,18,17,6.40
2018,02,17,18,18,6.40
2018,02,17,18,19,6.40
2018,02,17,18,20,6.40
2018,02,17,18,21,6.40
2018,02,17,18,22,4.80
2018,02,17,18,23,8.10
2018,02,17,18,24,4.80
2018,02,17,18,25,4.80
2018,02,17,18,26,3.20
2018,02,17,18,27,3.20
2018,02,17,18,28,6.40
2018,02,17,18,29,4.80
2018,02,17,18,30,6.40
2018,02,17,18,31,6.40
2018,02,17,18,32,8.10
2018,02,17,18,33,6.40
2018,02,17,18,34,4.80
2018,02,17,18,35,14.50
2018,02,17,18,36,8.10
2018,02,17,18,37,11.30
2018,02,17,18,38,1.60
2018,02,17,18,39,9.60
2018,02,17,18,40,8.10
2018,02,17,18,41,6.40
2018,02,17,18,42,4.80
2018,02,17,18,43,4.80
2018,02,17,18,44,6.40
2018,02,17,18,45,6.40
2018,02,17,18,46,3.20
2018,02,17,18,47,4.80
2018,02,17,18,48,1.60
2018,02,17,18,49,3.20
2018,02,17,18,50,4.80
2018,02,17,18,51,4.80
2018,02,17,18,53,1.60
2018,02,17,18,54,6.40
2018,02,17,18,55,4.80
2018,02,17,18,56,1.60
2018,02,17,18,57,4.80
2018,02,17,18,58,4.80
2018,02,17,18,59,3.20
2018,02,17,19,00,4.80
2018,02,17,19,01,3.20
2018,02,17,19,02,3.20
2018,02,17,19,03,3.20
2018,02,17,19,04,3.20
2018,02,17,19,05,1.60
2018,02,17,19,06,1.60
2018,02,17,19,07,6.40
2018,02,17,19,08,6.40
2018,02,17,19,09,4.80
2018,02,17,19,10,3.20
2018,02,17,19,11,6.40
2018,02,17,19,12,6.40
2018,02,17,19,13,4.80
2018,02,17,19,14,4.80
2018,02,17,19,15,4.80
2018,02,17,19,16,4.80
2018,02,17,19,17,3.20
2018,02,17,19,18,6.40
2018,02,17,19,19,4.80
2018,02,17,19,20,6.40
2018,02,17,19,21,6.40
2018,02,17,19,22,4.80
2018,02,17,19,23,8.10
2018,02,17,19,24,8.10
2018,02,17,19,25,6.40
2018,02,17,19,26,8.10
2018,02,17,19,27,4.80
2018,02,17,19,28,4.80
2018,02,17,19,29,9.60
2018,02,17,19,30,8.10
2018,02,17,19,31,8.10
2018,02,17,19,32,8.10
2018,02,17,19,33,4.80
2018,02,17,19,34,9.60
2018,02,17,19,35,11.30
2018,02,17,19,36,8.10
2018,02,17,19,37,11.30
2018,02,17,19,38,9.60
2018,02,17,19,39,19.30
2018,02,17,19,40,12.90
2018,02,17,19,41,8.10
2018,02,17,19,42,11.30
2018,02,17,19,43,17.70
2018,02,17,19,44,16.10
2018,02,17,19,45,22.50
2018,02,17,19,46,19.30
2018,02,17,19,47,16.10
2018,02,17,19,48,11.30
2018,02,17,19,49,8.10
2018,02,17,19,50,8.10
2018,02,17,19,51,19.30
2018,02,17,19,52,9.60
2018,02,17,19,53,11.30
2018,02,17,19,54,11.30
2018,02,17,19,55,6.40
2018,02,17,19,56,11.30
2018,02,17,19,57,14.50
2018,02,17,19,58,11.30
2018,02,17,19,59,14.50
2018,02,17,20,00,6.40
2018,02,17,20,01,14.50
2018,02,17,20,02,6.40
2018,02,17,20,03,14.50
2018,02,17,20,04,9.60
2018,02,17,20,05,8.10
2018,02,17,20,06,9.60
2018,02,17,20,07,11.30
2018,02,17,20,08,29.00
2018,02,17,20,09,19.30
2018,02,17,20,10,11.30
2018,02,17,20,11,11.30
2018,02,17,20,12,9.60
2018,02,17,20,13,9.60
2018,02,17,20,14,8.10
2018,02,17,20,15,9.60
2018,02,17,20,16,19.30
2018,02,17,20,17,16.10
2018,02,17,20,18,14.50
2018,02,17,20,19,14.50
2018,02,17,20,20,16.10
2018,02,17,20,21,8.10
2018,02,17,20,22,4.80
2018,02,17,20,23,14.50
2018,02,17,20,24,8.10
2018,02,17,20,25,4.80
2018,02,17,20,26,8.10
2018,02,17,20,27,9.60
2018,02,17,20,28,11.30
2018,02,17,20,29,22.50
2018,02,17,20,30,19.30
2018,02,17,20,31,16.10
2018,02,17,20,32,6.40
2018,02,17,20,33,16.10
2018,02,17,20,34,6.40
2018,02,17,20,35,17.70
2018,02,17,20,36,32.20
2018,02,17,20,37,11.30
2018,02,17,20,38,8.10
2018,02,17,20,39,14.50
2018,02,17,20,40,8.10
2018,02,17,20,41,8.10
2018,02,17,20,42,11.30
2018,02,17,20,43,6.40
2018,02,17,20,44,17.70
2018,02,17,20,45,19.30
2018,02,17,20,46,20.90
2018,02,17,20,47,9.60
2018,02,17,20,48,9.60
2018,02,17,20,49,14.50
2018,02,17,20,50,17.70
2018,02,17,20,51,29.00
2018,02,17,20,52,8.10
2018,02,17,20,53,27.40
2018,02,17,20,54,30.60
2018,02,17,20,55,16.10
2018,02,17,20,56,11.30
2018,02,17,20,57,27.40
2018,02,17,20,58,19.30
2018,02,17,20,59,19.30
2018,02,17,21,00,9.60
2018,02,17,21,01,16.10
2018,02,17,21,02,24.20
2018,02,17,21,03,11.30
2018,02,17,21,04,11.30
2018,02,17,21,05,11.30
2018,02,17,21,06,20.90
2018,02,17,21,07,16.10
2018,02,17,21,08,17.70
2018,02,17,21,09,29.00
2018,02,17,21,10,8.10
2018,02,17,21,11,17.70
2018,02,17,21,12,9.60
2018,02,17,21,13,12.90
2018,02,17,21,14,16.10
2018,02,17,21,15,8.10
2018,02,17,21,16,11.30
2018,02,17,21,17,9.60
2018,02,17,21,18,11.30
2018,02,17,21,19,35.40
2018,02,17,21,20,14.50
2018,02,17,21,21,17.70
2018,02,17,21,22,17.70
2018,02,17,21,23,29.00
2018,02,17,21,24,20.90
2018,02,17,21,25,22.50
2018,02,17,21,26,14.50
2018,02,17,21,27,37.00
2018,02,17,21,28,14.50
2018,02,17,21,29,14.50
2018,02,17,21,30,22.50
2018,02,17,21,31,12.90
2018,02,17,21,32,12.90
2018,02,17,21,33,8.10
2018,02,17,21,34,17.70
2018,02,17,21,35,19.30
2018,02,17,21,36,11.30
2018,02,17,21,37,25.70
2018,02,17,21,38,11.30
2018,02,17,21,39,4.80
2018,02,17,21,40,16.10
2018,02,17,21,41,14.50
2018,02,17,21,42,17.70
2018,02,17,21,43,8.10
2018,02,17,21,44,22.50
2018,02,17,21,45,19.30
2018,02,17,21,46,11.30
2018,02,17,21,47,19.30
2018,02,17,21,48,8.10
2018,02,17,21,49,9.60
2018,02,17,21,50,8.10
2018,02,17,21,51,8.10
2018,02,17,21,52,6.40
2018,02,17,21,53,22.50
2018,02,17,21,54,16.10
2018,02,17,21,55,8.10
2018,02,17,21,56,16.10
2018,02,17,21,57,8.10
2018,02,17,21,58,4.80
2018,02,17,21,59,8.10
2018,02,17,22,00,4.80
2018,02,17,22,01,11.30
2018,02,17,22,02,8.10
2018,02,17,22,03,6.40
2018,02,17,22,04,6.40
2018,02,17,22,05,4.80
2018,02,17,22,06,4.80
2018,02,17,22,07,8.10
2018,02,17,22,08,6.40
2018,02,17,22,09,4.80
2018,02,17,22,10,3.20
2018,02,17,22,11,4.80
2018,02,17,22,12,4.80
2018,02,17,22,13,8.10
2018,02,17,22,14,6.40
2018,02,17,22,15,4.80
2018,02,17,22,16,3.20
2018,02,17,22,17,8.10
2018,02,17,22,18,8.10
2018,02,17,22,19,6.40
2018,02,17,22,20,3.20
2018,02,17,22,21,1.60
2018,02,17,22,22,1.60
2018,02,17,22,23,4.80
2018,02,17,22,24,3.20
2018,02,17,22,25,4.80
2018,02,17,22,26,3.20
2018,02,17,22,27,8.10
2018,02,17,22,28,6.40
2018,02,17,22,29,4.80
2018,02,17,22,30,4.80
2018,02,17,22,31,1.60
2018,02,17,22,32,1.60
2018,02,17,22,33,8.10
2018,02,17,22,34,6.40
2018,02,17,22,35,14.50
2018,02,17,22,36,11.30
2018,02,17,22,37,14.50
2018,02,17,22,38,6.40
2018,02,17,22,39,11.30
2018,02,17,22,40,6.40
2018,02,17,22,41,9.60
2018,02,17,22,42,19.30
2018,02,17,22,43,16.10
2018,02,17,22,44,6.40
2018,02,17,22,45,3.20
2018,02,17,22,46,9.60
2018,02,17,22,47,6.40
2018,02,17,22,48,3.20
2018,02,17,22,49,8.10
2018,02,17,22,50,8.10
2018,02,17,22,51,11.30
2018,02,17,22,52,11.30
2018,02,17,22,53,6.40
2018,02,17,22,54,6.40
2018,02,17,22,55,17.70
2018,02,17,22,56,20.90